When you browse on this site, cookies collect data to enhance your experience and personalize the content and advertising you see.
Visit our Privacy Policy to learn more. By continuing to use the site, you agree to this use of cookies and data.
  • In Romania
  • List of Countries
  • For 7 days
  • Water Temperature
  • Satellite Maps
  • Weather Map
  • Weather Widgets
  • user-avatar
    Login

    Hourly Weather Mizino-Lapshinovka

    Today, 23 May, Thursday

    Time Temperature Precipitation Wind Pressure Humidity
    00:00 +16°C° 0 mm 3 mps 751 mmHg 70%
    01:00 +14°C° 0 mm 3 mps 751 mmHg 69%
    02:00 +15°C° 0 mm 2 mps 751 mmHg 68%
    03:00 +14°C° 0 mm 2 mps 750 mmHg 68%
    04:00 +14°C° 0 mm 2 mps 750 mmHg 67%
    05:00 +15°C° 0 mm 2 mps 750 mmHg 66%
    06:00 +16°C° 0 mm 2 mps 749 mmHg 65%
    07:00 +17°C° 0 mm 3 mps 749 mmHg 61%
    08:00 +19°C° 0 mm 4 mps 749 mmHg 57%
    09:00 +20°C° 0 mm 5 mps 749 mmHg 52%
    10:00 +21°C° 0 mm 5 mps 748 mmHg 53%
    11:00 +22°C° 0 mm 6 mps 748 mmHg 54%
    12:00 +22°C° 0 mm 7 mps 747 mmHg 55%
    13:00 +22°C° 0.5 mm 6 mps 747 mmHg 58%
    14:00 +22°C° 0.5 mm 6 mps 746 mmHg 61%
    15:00 +22°C° 0 mm 5 mps 746 mmHg 61%
    16:00 +21°C° 0.6 mm 5 mps 745 mmHg 64%
    17:00 +21°C° 0.6 mm 5 mps 745 mmHg 68%
    18:00 +20°C° 0.6 mm 4 mps 745 mmHg 71%
    19:00 +19°C° 0.1 mm 4 mps 745 mmHg 75%
    20:00 +18°C° 0.1 mm 3 mps 745 mmHg 79%
    21:00 +17°C° 0.1 mm 2 mps 745 mmHg 83%
    22:00 +16°C° 0 mm 2 mps 745 mmHg 86%
    23:00 +16°C° 0 mm 2 mps 744 mmHg 88%

    Tomorrow, 24 May, Friday

    Time Temperature Precipitation Wind Pressure Humidity
    00:00 +15°C° 0 mm 2 mps 744 mmHg 90%
    01:00 +15°C° 0 mm 2 mps 744 mmHg 91%
    02:00 +14°C° 0 mm 2 mps 744 mmHg 92%
    03:00 +14°C° 0 mm 2 mps 744 mmHg 94%
    04:00 +15°C° 0 mm 2 mps 744 mmHg 91%
    05:00 +15°C° 0 mm 2 mps 744 mmHg 88%
    06:00 +16°C° 0 mm 2 mps 745 mmHg 85%
    07:00 +18°C° 0.3 mm 3 mps 745 mmHg 80%
    08:00 +19°C° 0.3 mm 3 mps 746 mmHg 75%
    09:00 +21°C° 0.3 mm 4 mps 746 mmHg 70%
    10:00 +20°C° 0.4 mm 5 mps 746 mmHg 71%
    11:00 +20°C° 0.4 mm 6 mps 747 mmHg 71%
    12:00 +19°C° 0.4 mm 6 mps 747 mmHg 71%
    13:00 +19°C° 0 mm 6 mps 748 mmHg 69%
    14:00 +19°C° 0 mm 5 mps 748 mmHg 67%
    15:00 +17°C° 0 mm 5 mps 749 mmHg 65%
    16:00 +17°C° 0 mm 5 mps 749 mmHg 65%
    17:00 +18°C° 0 mm 4 mps 750 mmHg 65%
    18:00 +18°C° 0 mm 4 mps 750 mmHg 65%
    19:00 +15°C° 0 mm 4 mps 751 mmHg 66%
    20:00 +14°C° 0 mm 4 mps 751 mmHg 68%
    21:00 +12°C° 0 mm 4 mps 752 mmHg 70%
    22:00 +11°C° 0 mm 4 mps 752 mmHg 67%
    23:00 +10°C° 0 mm 4 mps 753 mmHg 65%

    Day after tomorrow, 25 May, Saturday

    Time Temperature Precipitation Wind Pressure Humidity
    00:00 +8°C° 0 mm 4 mps 753 mmHg 62%
    01:00 +7°C° 0 mm 4 mps 754 mmHg 63%
    02:00 +6°C° 0 mm 4 mps 754 mmHg 65%
    03:00 +6°C° 0 mm 4 mps 754 mmHg 66%
    04:00 +6°C° 0 mm 4 mps 754 mmHg 67%
    05:00 +7°C° 0 mm 5 mps 755 mmHg 67%
    06:00 +8°C° 0 mm 5 mps 755 mmHg 67%
    07:00 +9°C° 0 mm 5 mps 755 mmHg 63%
    08:00 +11°C° 0 mm 6 mps 755 mmHg 59%
    09:00 +13°C° 0 mm 6 mps 755 mmHg 55%
    10:00 +14°C° 0 mm 6 mps 755 mmHg 52%
    11:00 +15°C° 0 mm 6 mps 754 mmHg 50%
    12:00 +17°C° 0 mm 6 mps 754 mmHg 48%
    13:00 +17°C° 0 mm 6 mps 754 mmHg 47%
    14:00 +19°C° 0 mm 6 mps 754 mmHg 46%
    15:00 +20°C° 0 mm 6 mps 753 mmHg 45%
    16:00 +19°C° 0 mm 5 mps 753 mmHg 49%
    17:00 +19°C° 0 mm 5 mps 752 mmHg 52%
    18:00 +18°C° 0 mm 4 mps 752 mmHg 55%
    19:00 +17°C° 0.1 mm 4 mps 752 mmHg 57%
    20:00 +15°C° 0.1 mm 4 mps 752 mmHg 59%
    21:00 +14°C° 0.1 mm 4 mps 752 mmHg 61%
    22:00 +13°C° 0 mm 4 mps 752 mmHg 61%
    23:00 +13°C° 0 mm 4 mps 752 mmHg 61%

    26 May, Sunday

    Time Temperature Precipitation Wind Pressure Humidity
    00:00 +12°C° 0 mm 4 mps 751 mmHg 61%
    01:00 +12°C° 0 mm 4 mps 751 mmHg 59%
    02:00 +12°C° 0 mm 4 mps 751 mmHg 58%
    03:00 +12°C° 0 mm 4 mps 751 mmHg 56%
    04:00 +12°C° 0.2 mm 4 mps 751 mmHg 59%
    05:00 +12°C° 0.2 mm 4 mps 750 mmHg 61%
    06:00 +12°C° 0.2 mm 5 mps 750 mmHg 63%
    07:00 +14°C° 0 mm 5 mps 750 mmHg 60%
    08:00 +16°C° 0 mm 6 mps 750 mmHg 57%
    09:00 +17°C° 0 mm 6 mps 749 mmHg 54%
    10:00 +19°C° 0.1 mm 6 mps 749 mmHg 59%
    11:00 +18°C° 0.1 mm 7 mps 749 mmHg 65%
    12:00 +18°C° 0.1 mm 7 mps 748 mmHg 70%
    13:00 +18°C° 0 mm 7 mps 748 mmHg 72%
    14:00 +18°C° 0 mm 7 mps 748 mmHg 73%
    15:00 +18°C° 0 mm 7 mps 748 mmHg 74%
    16:00 +20°C° 0 mm 6 mps 747 mmHg 75%
    17:00 +20°C° 0 mm 6 mps 747 mmHg 76%
    18:00 +20°C° 0 mm 6 mps 747 mmHg 77%
    19:00 +19°C° 1.2 mm 5 mps 747 mmHg 81%
    20:00 +18°C° 1.2 mm 4 mps 747 mmHg 85%
    21:00 +17°C° 1.2 mm 4 mps 746 mmHg 90%
    22:00 +17°C° 0.2 mm 4 mps 746 mmHg 91%
    23:00 +16°C° 0.2 mm 3 mps 746 mmHg 92%

    27 May, Monday

    Time Temperature Precipitation Wind Pressure Humidity
    00:00 +14°C° 0.2 mm 3 mps 746 mmHg 94%
    01:00 +14°C° 0 mm 3 mps 746 mmHg 94%
    02:00 +14°C° 0 mm 3 mps 746 mmHg 94%
    03:00 +14°C° 0 mm 4 mps 746 mmHg 94%
    04:00 +15°C° 0 mm 4 mps 747 mmHg 92%
    05:00 +15°C° 0 mm 4 mps 747 mmHg 91%
    06:00 +17°C° 0 mm 4 mps 747 mmHg 90%
    07:00 +19°C° 0 mm 4 mps 748 mmHg 82%
    08:00 +20°C° 0 mm 5 mps 748 mmHg 75%
    09:00 +22°C° 0 mm 5 mps 749 mmHg 68%
    10:00 +23°C° 0 mm 5 mps 749 mmHg 62%
    11:00 +25°C° 0 mm 5 mps 750 mmHg 57%
    12:00 +26°C° 0 mm 5 mps 750 mmHg 51%
    13:00 +26°C° 0 mm 5 mps 750 mmHg 52%
    14:00 +26°C° 0 mm 5 mps 751 mmHg 52%
    15:00 +26°C° 0 mm 5 mps 751 mmHg 52%
    16:00 +26°C° 0 mm 4 mps 751 mmHg 55%
    17:00 +25°C° 0 mm 3 mps 751 mmHg 59%
    18:00 +25°C° 0 mm 3 mps 752 mmHg 62%
    19:00 +23°C° 0 mm 2 mps 752 mmHg 67%
    20:00 +20°C° 0 mm 2 mps 753 mmHg 71%
    21:00 +18°C° 0 mm 2 mps 753 mmHg 76%
    22:00 +18°C° 0 mm 2 mps 753 mmHg 78%
    23:00 +17°C° 0 mm 2 mps 754 mmHg 80%

    28 May, Tuesday

    Time Temperature Precipitation Wind Pressure Humidity
    00:00 +17°C° 0 mm 2 mps 754 mmHg 82%
    01:00 +17°C° 0 mm 2 mps 754 mmHg 83%
    02:00 +16°C° 0 mm 1 mps 754 mmHg 84%
    03:00 +16°C° 0 mm 1 mps 754 mmHg 85%
    04:00 +18°C° 0 mm 1 mps 755 mmHg 83%
    05:00 +19°C° 0 mm 1 mps 755 mmHg 81%
    06:00 +20°C° 0 mm 1 mps 755 mmHg 79%
    07:00 +21°C° 0 mm 2 mps 755 mmHg 74%
    08:00 +23°C° 0 mm 2 mps 756 mmHg 69%
    09:00 +25°C° 0 mm 2 mps 756 mmHg 63%
    10:00 +26°C° 0 mm 2 mps 756 mmHg 59%
    11:00 +27°C° 0 mm 3 mps 756 mmHg 55%
    12:00 +28°C° 0 mm 3 mps 756 mmHg 51%
    13:00 +28°C° 0 mm 3 mps 755 mmHg 50%
    14:00 +29°C° 0 mm 3 mps 755 mmHg 50%
    15:00 +29°C° 0 mm 3 mps 755 mmHg 49%
    16:00 +29°C° 0 mm 2 mps 755 mmHg 53%
    17:00 +28°C° 0 mm 2 mps 755 mmHg 56%
    18:00 +28°C° 0 mm 1 mps 755 mmHg 60%
    19:00 +26°C° 0 mm 1 mps 755 mmHg 63%
    20:00 +24°C° 0 mm 1 mps 756 mmHg 67%
    21:00 +22°C° 0 mm 1 mps 756 mmHg 71%
    22:00 +22°C° 0 mm 1 mps 756 mmHg 73%
    23:00 +21°C° 0 mm 1 mps 756 mmHg 75%
    Show more